Погода в Ульяновске

Россия / Ульяновская область     54°19′00″N   48°24′09″E
темп.,
°C
ветер,
м/с
пор.,
м/с
влажн.,
%
обл.,
%
осадки,
мм/ч
давл.,
гПа
погр.,
м
13 июня, вс
вс1301:00+15ю339196 0.0 101126
04:00+15ю33915 0.0 101138
07:00+16ю33880 0.0 101284
10:00+18ю348265 1.6 1012137
13:00+21ю576556 1.4 1012540
16:00+22ю69674 1.4 1012529
19:00+19ю91484100 2.2 1013277
22:00+16ю3583100 2.3 101373
14 июня, пн
пн1401:00+16ююз358979 0.0 101465
04:00+16ю3391100 0.0 101541
07:00+17ю2389100 0.0 101658
10:00+18ююв2383100 0.0 1016107
13:00+20ююв2377100 0.0 1016172
16:00+20юв127586 0.8 1016330
19:00+19з1185100 0.9 101527
22:00+18ссв1188100 1.9 101511
15 июня, вт
вт1501:00+17ссв339090 0.1 101422
04:00+16ссз4594100 0.8 101354
07:00+17ссв229588 3.4 101465
10:00+18с1192100 3.4 101467
13:00+18ююв2392100 0.0 101486
16:00+21юв457685 1.1 1013309
19:00+20ююв348498 1.3 101247
22:00+19вюв228395 1.3 101117
16 июня, ср
ср1601:00+18в3387100 0.0 101117
04:00+18св3481100 0.0 100939
07:00+18в2486100 0.0 1008111
10:00+21юв57715 0.0 1007291
13:00+22ююв45615 0.0 1006368
16:00+23юз446299 0.0 1006360
19:00+23зюз457264 0.0 1005209
22:00+20з58874 0.3 1007102
17 июня, чт
чт1701:00+18сз7119360 0.1 1008265
04:00+17сз7118497 0.1 1011315
07:00+15сз813810 0.0 1013507
10:00+17ссз912610 0.0 1015538
13:00+18ссз912570 0.0 1017685
16:00+19с710555 0.0 1018798
19:00+18ссз610610 0.0 1019398
22:00+16ссз47702 0.0 1021107